UAE833 OMDB-OBBI

Flight info

Callsign UAE833
Flight time N/A
Altitude 26000
Route NABIX P699 ORMID Y856 ALKAN/N0419F180 Y856 SOLOB/N0408F160 Y856 ORDIG
Aircraft B77W/H-SDE1E2E3FGHIJ2J3J4J5M1RWXY/LB1D1

Departure

Time N/A
Airport Dubai International Airport (OMDB)

Arrival

Time 2026-05-04 12:43
Airport Bahrain International Airport (OBBI)
Time Latitude Longitude Altitude Speed Heading
2026-05-04 12:11 25.45326 53.45445 25746 ft 444 kts 283°
2026-05-04 12:11 25.46019 53.42105 25747 ft 444 kts 283°
2026-05-04 12:11 25.46708 53.38771 25756 ft 444 kts 282°
2026-05-04 12:12 25.47393 53.35442 25748 ft 444 kts 282°
2026-05-04 12:12 25.48075 53.32105 25754 ft 444 kts 282°
2026-05-04 12:12 25.48758 53.28779 25753 ft 443 kts 282°
2026-05-04 12:12 25.49445 53.25454 25744 ft 443 kts 283°
2026-05-04 12:13 25.50141 53.22093 25753 ft 443 kts 282°
2026-05-04 12:14 25.54840 52.99158 25755 ft 443 kts 282°
2026-05-04 12:15 25.55519 52.95838 25753 ft 443 kts 282°
2026-05-04 12:15 25.56328 52.92543 25762 ft 444 kts 288°
2026-05-04 12:15 25.57403 52.89337 25760 ft 445 kts 291°
2026-05-04 12:15 25.58717 52.86234 25761 ft 446 kts 296°
2026-05-04 12:16 25.60199 52.83222 25755 ft 446 kts 297°
2026-05-04 12:16 25.61702 52.80219 25753 ft 446 kts 297°
2026-05-04 12:16 25.63200 52.77216 25754 ft 445 kts 297°
2026-05-04 12:16 25.64711 52.74156 25762 ft 445 kts 297°
2026-05-04 12:17 25.66164 52.71185 25757 ft 445 kts 297°
2026-05-04 12:17 25.67651 52.68126 25760 ft 445 kts 297°
2026-05-04 12:17 25.69099 52.65137 25760 ft 445 kts 297°
2026-05-04 12:17 25.70562 52.62110 25758 ft 445 kts 297°
2026-05-04 12:18 25.72020 52.59088 25760 ft 445 kts 297°
2026-05-04 12:18 25.73499 52.56021 25759 ft 445 kts 297°
2026-05-04 12:18 25.74949 52.53024 25759 ft 446 kts 297°
2026-05-04 12:18 25.76416 52.49995 25751 ft 446 kts 296°
2026-05-04 12:19 25.77878 52.46920 25758 ft 446 kts 296°
2026-05-04 12:19 25.79290 52.43907 25757 ft 446 kts 296°
2026-05-04 12:19 25.80713 52.40848 25758 ft 446 kts 296°
2026-05-04 12:19 25.82130 52.37796 25758 ft 446 kts 296°
2026-05-04 12:20 25.83554 52.34740 25760 ft 446 kts 296°
2026-05-04 12:20 25.84983 52.31690 25757 ft 446 kts 296°
2026-05-04 12:20 25.86516 52.28682 25763 ft 447 kts 301°
2026-05-04 12:20 25.88284 52.25845 25763 ft 449 kts 305°
2026-05-04 12:21 25.90284 52.23164 25763 ft 451 kts 310°
2026-05-04 12:21 25.91721 52.21441 25754 ft 451 kts 311°
2026-05-04 12:21 25.93870 52.18905 25757 ft 451 kts 311°
2026-05-04 12:21 25.96013 52.16367 25762 ft 451 kts 310°
2026-05-04 12:22 25.98835 52.12978 25764 ft 451 kts 310°
2026-05-04 12:22 26.00254 52.11257 25761 ft 451 kts 310°
2026-05-04 12:22 26.02370 52.08686 25762 ft 451 kts 310°
2026-05-04 12:22 26.04492 52.06116 25760 ft 451 kts 310°
2026-05-04 12:23 26.06609 52.03555 25766 ft 451 kts 310°
2026-05-04 12:23 26.08731 52.00993 25754 ft 451 kts 310°
2026-05-04 12:23 26.10676 51.98640 25756 ft 451 kts 310°
2026-05-04 12:23 26.12797 51.96065 25757 ft 451 kts 310°
2026-05-04 12:24 26.14882 51.93525 25760 ft 451 kts 310°
2026-05-04 12:24 26.16992 51.90947 25757 ft 449 kts 310°
2026-05-04 12:24 26.19111 51.88359 25372 ft 446 kts 310°
2026-05-04 12:24 26.21173 51.85848 24779 ft 443 kts 310°
2026-05-04 12:25 26.23255 51.83277 24116 ft 440 kts 308°
2026-05-04 12:25 26.25090 51.80569 23464 ft 438 kts 303°
2026-05-04 12:25 26.26698 51.77697 22725 ft 434 kts 297°
2026-05-04 12:25 26.28025 51.74745 22141 ft 429 kts 295°
2026-05-04 12:26 26.29317 51.71772 21605 ft 423 kts 295°
2026-05-04 12:26 26.30607 51.68841 21011 ft 420 kts 295°
2026-05-04 12:26 26.31915 51.65904 20406 ft 417 kts 295°
2026-05-04 12:26 26.33180 51.63063 19841 ft 413 kts 295°
2026-05-04 12:27 26.34468 51.60162 19288 ft 410 kts 294°
2026-05-04 12:27 26.35694 51.57352 18759 ft 407 kts 294°
2026-05-04 12:27 26.36938 51.54521 18232 ft 404 kts 294°
2026-05-04 12:27 26.38112 51.51689 17673 ft 400 kts 290°
2026-05-04 12:28 26.39056 51.48788 17124 ft 395 kts 288°
2026-05-04 12:28 26.39950 51.45915 16600 ft 391 kts 288°
2026-05-04 12:28 26.40844 51.43063 16055 ft 388 kts 288°
2026-05-04 12:28 26.41742 51.40225 15524 ft 385 kts 289°
2026-05-04 12:29 26.42631 51.37430 14982 ft 382 kts 289°
2026-05-04 12:29 26.43526 51.34655 14453 ft 379 kts 290°
2026-05-04 12:29 26.44429 51.31898 13954 ft 376 kts 290°
2026-05-04 12:29 26.45250 51.29184 13465 ft 372 kts 285°
2026-05-04 12:30 26.45723 51.26358 12903 ft 369 kts 277°
2026-05-04 12:30 26.45908 51.23518 12333 ft 366 kts 272°
2026-05-04 12:30 26.45850 51.20683 11796 ft 364 kts 269°
2026-05-04 12:30 26.45731 51.17874 11251 ft 361 kts 269°
2026-05-04 12:31 26.45606 51.15080 10703 ft 359 kts 269°
2026-05-04 12:31 26.45484 51.12309 10184 ft 356 kts 269°
2026-05-04 12:31 26.45365 51.09557 9668 ft 353 kts 269°
2026-05-04 12:31 26.45249 51.06830 9082 ft 351 kts 270°
2026-05-04 12:32 26.45136 51.04117 8505 ft 350 kts 270°
2026-05-04 12:32 26.44927 50.99107 8028 ft 329 kts 270°
2026-05-04 12:32 26.44822 50.96619 7974 ft 313 kts 270°
2026-05-04 12:33 26.44722 50.94241 7877 ft 299 kts 270°
2026-05-04 12:33 26.44507 50.92001 7727 ft 286 kts 257°
2026-05-04 12:33 26.43562 50.90058 7469 ft 290 kts 232°
2026-05-04 12:33 26.41926 50.88732 7116 ft 296 kts 210°
2026-05-04 12:34 26.40019 50.87866 6783 ft 295 kts 204°
2026-05-04 12:34 26.38102 50.87097 6438 ft 293 kts 203°
2026-05-04 12:34 26.36186 50.86336 6079 ft 291 kts 203°
2026-05-04 12:34 26.34292 50.85587 5720 ft 289 kts 202°
2026-05-04 12:35 26.32390 50.84894 5341 ft 285 kts 193°
2026-05-04 12:35 26.30399 50.84961 4966 ft 287 kts 163°
2026-05-04 12:35 26.28677 50.85999 4613 ft 281 kts 134°
2026-05-04 12:35 26.27396 50.87600 4288 ft 275 kts 125°
2026-05-04 12:36 26.26240 50.89301 3827 ft 278 kts 123°
2026-05-04 12:36 26.25086 50.91039 3364 ft 281 kts 123°
2026-05-04 12:36 26.23892 50.92767 2894 ft 282 kts 131°
2026-05-04 12:36 26.22268 50.93981 2402 ft 289 kts 159°
2026-05-04 12:37 26.20302 50.94272 1941 ft 282 kts 188°
2026-05-04 12:37 26.18523 50.93631 1630 ft 256 kts 209°
2026-05-04 12:37 26.17121 50.92620 1460 ft 225 kts 232°
2026-05-04 12:37 26.16455 50.91159 1519 ft 211 kts 264°
2026-05-04 12:38 26.16325 50.89590 1484 ft 203 kts 271°
2026-05-04 12:38 26.16288 50.88023 1503 ft 202 kts 272°
2026-05-04 12:38 26.16265 50.86475 1499 ft 200 kts 273°
2026-05-04 12:38 26.16267 50.84926 1568 ft 201 kts 274°
2026-05-04 12:39 26.16267 50.83390 1529 ft 197 kts 275°
2026-05-04 12:39 26.16573 50.81969 1509 ft 190 kts 300°
2026-05-04 12:39 26.17204 50.80641 1518 ft 199 kts 302°
2026-05-04 12:39 26.17903 50.79319 1513 ft 198 kts 305°
2026-05-04 12:40 26.18633 50.78033 1502 ft 195 kts 306°
2026-05-04 12:40 26.19357 50.76774 1498 ft 192 kts 306°
2026-05-04 12:40 26.20078 50.75523 1499 ft 191 kts 306°
2026-05-04 12:40 26.20794 50.74280 1497 ft 191 kts 306°
2026-05-04 12:41 26.21512 50.73035 1541 ft 190 kts 305°
2026-05-04 12:41 26.22231 50.71790 1434 ft 195 kts 306°
2026-05-04 12:41 26.22938 50.70557 1186 ft 179 kts 306°
2026-05-04 12:41 26.23562 50.69471 953 ft 155 kts 307°
2026-05-04 12:42 26.24116 50.68507 758 ft 147 kts 303°
2026-05-04 12:42 26.24612 50.67528 579 ft 141 kts 304°
2026-05-04 12:42 26.25142 50.66645 364 ft 135 kts 308°
2026-05-04 12:42 26.25680 50.65774 294 ft 142 kts 305°
2026-05-04 12:43 26.26163 50.64925 84 ft 125 kts 307°
2026-05-04 12:43 26.26610 50.64206 22 ft 108 kts 302°
2026-05-04 12:43 26.26936 50.63631 17 ft 65 kts 300°
2026-05-04 12:43 26.27111 50.63318 16 ft 39 kts 300°
2026-05-04 12:44 26.27234 50.63070 18 ft 35 kts 284°
2026-05-04 12:44 26.27254 50.62909 19 ft 0 kts 274°
2026-05-04 12:46 26.27254 50.62908 19 ft 1 kts 274°
2026-05-04 12:46 26.27244 50.62855 22 ft 13 kts 245°
2026-05-04 12:47 26.27200 50.62847 20 ft 0 kts 164°
2026-05-04 12:47 26.27182 50.62828 20 ft 1 kts 247°
2026-05-04 12:47 26.27149 50.62829 19 ft 10 kts 141°
2026-05-04 12:47 26.27090 50.62885 20 ft 1 kts 176°
2026-05-04 12:48 26.27033 50.62907 19 ft 14 kts 138°
2026-05-04 12:48 26.26972 50.63000 19 ft 20 kts 124°
2026-05-04 12:48 26.26907 50.63104 18 ft 19 kts 124°
2026-05-04 12:48 26.26881 50.63150 18 ft 13 kts 121°
2026-05-04 12:49 26.26856 50.63187 19 ft 10 kts 141°
2026-05-04 12:49 26.26815 50.63181 19 ft 2 kts 201°
2026-05-04 12:49 26.26791 50.63166 19 ft 3 kts 210°
2026-05-04 12:49 26.26781 50.63160 19 ft 0 kts 210°
2026-05-04 12:51 26.26768 50.63151 19 ft 0 kts 210°
2026-05-04 12:52 26.26768 50.63152 19 ft 0 kts 209°
2026-05-04 12:53 26.26768 50.63151 19 ft 0 kts 210°